GEESAT 2-03

Satellite information

Favourite Embed

Satellite Type and Status

PAYLOADIN ORBIT

Key statistics

Satellite GEESAT 2-03 at a glance.

Uptime

461

Days in orbit

Revolutions

≈ 14.9

Per day

Orbit

LEO

Low Earth Orbit

Inclination

50.0

Latest

Satellite identification and parameters

Extended collection of information and parameters for GEESAT 2-03.

Object identification

Identified? True

Debris? False

Object name: GEESAT 2-03

International designator: 2024-023C

Object number (NORAD): 58907

Object ID (CCSDS): 58907

Country: PEOPLES REPUBLIC OF CHINA (PRC)

Current information (Y/N): Y

RCS size: MEDIUM

Orbital parameters

Period: 96.347 minutes

Inclination: 50.0005 deg

SMA: 6961.762 km

Apoapsis: 588.213 km

Periapsis: 579.041 km

RAAN: 78.2757 deg

Eccentricy: 0.0006587

Argument of periapsis: 254.0116 deg

Mean anomaly: 106.0101 deg

Mean motion: 14.94596598 rev/day

Mean motion (dot): 0.00002528 rev/day2

B* drag term: 0.00025369 1/REarth

Two-line elements (TLE)

Creation date: May 8, 2025, 3:01 a.m.

Reference frame: TEME

Reference center: EARTH

Epoch: May 7, 2025, 10:48 p.m. UTC

TLE line 0: 0 GEESAT 2-03

TLE line 1: 1 58907U 24023C 25127.95006039 .00002528 00000-0 25369-3 0 9994

TLE line 2: 2 58907 50.0005 78.2757 0006587 254.0116 106.0101 14.94596598 68667

Live tracking on map

Real-time ground track for satellite GEESAT 2-03.

In-orbit conjunctions

There are no conjunctions computed for GEESAT 2-03, at the moment. Check back to stay up to date, as we update our databases every day.

Go to all conjunctions

Associated space launch

11 LEO communications satellites for Chinese car manufacturer Geely Automotive for testing autonomous driving/inter-vehicle communication services. They also carry payloads for ocean observation.

GEESAT 2-03 was lifted into orbit during the mission ‘Long March 2C | Geely Constellation Group 02’, on board a Long March 2 space rocket.

The launch took place on Feb. 2, 2024, 11:37 p.m. from Launch Complex 3 (LC-3/LA-1).

For more information about the launch, click the button.

Launch to space Long March 2C | Geely Constellation Group 02
Long March 2C | Geely Constellation Group 02

Agency: N/A

Status: Launch Successful

Launch date: Feb. 2, 2024, 11:37 p.m. UTC

Rocket: Long March 2

Launch pad: Launch Complex 3 (LC-3/LA-1)

Location: Xichang Satellite Launch Center, People's Republic of China

...

Latest news about this satellite

News about space launch
China launches 20 satellites on separate inland and sea rocket launches

A pair of Chinese rockets launched 11 mobility services satellites for an automaker and nine further, diverse satellites into orbit late Friday.


Newsletter sign-up

Weekly statistics, charts and insights to help you stay on top of the space industry.